Orbital Elements at Epoch 2459200.5 (2020-Dec-17.0) TDB
Reference: JPL 14 (heliocentric ecliptic J2000)
Element | Value | Uncertainty (1-sigma) | Units |
e | .120897435986825 | 5.8262e-08 | |
a | 3.077339838022907 | 3.1e-08 | au |
q | 2.705297341945827 | 1.8736e-07 | au |
i | 11.68470775705608 | 6.8573e-06 | deg |
node | 61.76931956860106 | 3.0942e-05 | deg |
peri | 8.631224406794681 | 4.2791e-05 | deg |
M | 350.3789059613475 | 2.7259e-05 | deg |
tp | 2459253.196718786332 (2021-Feb-07.69671879) | 0.00014927 | TDB |
period | 1971.79433927833 5.40 | 2.9795e-05 8.157e-08 | d yr |
n | .1825748217391469 | 2.7588e-09 | deg/d |
Q | 3.449382334099989 | 3.4748e-08 | au |
|
| | Orbit Determination Parameters
Additional Information
|